When you browse on this site, cookies collect data to enhance your experience and personalize the content and advertising you see.
Visit our Privacy Policy to learn more. By continuing to use the site, you agree to this use of cookies and data.
  • In Deutschland
  • Länderverzeichnis
  • Für 7 Tage
  • Wassertemperatur
  • Satellitenkarten
  • Wetterkarte
  • Widgets
  • user-avatar
    Anmelden

    Stündliche Wetter Madinat 'Isa

    Heute, 19 Juli, Freitag

    Zeit Temperatur Niederschläge Wind Luftdruck Luftfeuchtigkeit
    00:00 +36°C° 0 mm 3 m/S 746 mmHg 47%
    01:00 +36°C° 0 mm 4 m/S 746 mmHg 47%
    02:00 +36°C° 0 mm 4 m/S 746 mmHg 47%
    03:00 +36°C° 0 mm 4 m/S 746 mmHg 46%
    04:00 +36°C° 0 mm 4 m/S 747 mmHg 49%
    05:00 +36°C° 0 mm 4 m/S 747 mmHg 52%
    06:00 +35°C° 0 mm 5 m/S 748 mmHg 55%
    07:00 +36°C° 0 mm 5 m/S 748 mmHg 56%
    08:00 +36°C° 0 mm 6 m/S 748 mmHg 57%
    09:00 +36°C° 0 mm 4 m/S 747 mmHg 60%
    10:00 +37°C° 0 mm 4 m/S 747 mmHg 59%
    11:00 +37°C° 0 mm 5 m/S 747 mmHg 58%
    12:00 +38°C° 0 mm 6 m/S 747 mmHg 57%
    13:00 +38°C° 0 mm 6 m/S 747 mmHg 57%
    14:00 +38°C° 0 mm 6 m/S 747 mmHg 57%
    15:00 +38°C° 0 mm 6 m/S 746 mmHg 57%
    16:00 +36°C° 0 mm 5 m/S 746 mmHg 59%
    17:00 +36°C° 0 mm 3 m/S 747 mmHg 60%
    18:00 +36°C° 0 mm 2 m/S 747 mmHg 61%
    19:00 +35°C° 0 mm 1 m/S 747 mmHg 63%
    20:00 +34°C° 0 mm 1 m/S 747 mmHg 65%
    21:00 +32°C° 0 mm 0 m/S 747 mmHg 67%
    22:00 +34°C° 0 mm 1 m/S 747 mmHg 63%
    23:00 +34°C° 0 mm 1 m/S 747 mmHg 60%

    Morgen, 20 Juli, Samstag

    Zeit Temperatur Niederschläge Wind Luftdruck Luftfeuchtigkeit
    00:00 +35°C° 0 mm 1 m/S 747 mmHg 56%
    01:00 +35°C° 0 mm 2 m/S 747 mmHg 58%
    02:00 +35°C° 0 mm 2 m/S 747 mmHg 59%
    03:00 +35°C° 0 mm 2 m/S 747 mmHg 61%
    04:00 +35°C° 0 mm 3 m/S 747 mmHg 63%
    05:00 +35°C° 0 mm 5 m/S 748 mmHg 65%
    06:00 +35°C° 0 mm 6 m/S 748 mmHg 67%
    07:00 +35°C° 0 mm 6 m/S 748 mmHg 64%
    08:00 +36°C° 0 mm 6 m/S 748 mmHg 62%
    09:00 +36°C° 0 mm 5 m/S 749 mmHg 59%
    10:00 +36°C° 0 mm 5 m/S 749 mmHg 59%
    11:00 +36°C° 0 mm 5 m/S 749 mmHg 58%
    12:00 +36°C° 0 mm 5 m/S 749 mmHg 57%
    13:00 +36°C° 0 mm 5 m/S 749 mmHg 57%
    14:00 +36°C° 0 mm 4 m/S 748 mmHg 57%
    15:00 +36°C° 0 mm 4 m/S 748 mmHg 57%
    16:00 +36°C° 0 mm 4 m/S 748 mmHg 59%
    17:00 +36°C° 0 mm 3 m/S 748 mmHg 61%
    18:00 +35°C° 0 mm 3 m/S 748 mmHg 62%
    19:00 +35°C° 0 mm 2 m/S 748 mmHg 63%
    20:00 +35°C° 0 mm 2 m/S 748 mmHg 63%
    21:00 +34°C° 0 mm 1 m/S 748 mmHg 64%
    22:00 +34°C° 0 mm 1 m/S 748 mmHg 65%
    23:00 +34°C° 0 mm 1 m/S 748 mmHg 66%

    übermorgen, 21 Juli, Sonntag

    Zeit Temperatur Niederschläge Wind Luftdruck Luftfeuchtigkeit
    00:00 +32°C° 0 mm 0 m/S 748 mmHg 67%
    01:00 +35°C° 0 mm 2 m/S 748 mmHg 63%
    02:00 +35°C° 0 mm 3 m/S 747 mmHg 60%
    03:00 +35°C° 0 mm 4 m/S 747 mmHg 56%
    04:00 +35°C° 0 mm 3 m/S 747 mmHg 56%
    05:00 +35°C° 0 mm 3 m/S 748 mmHg 56%
    06:00 +35°C° 0 mm 2 m/S 748 mmHg 56%
    07:00 +36°C° 0 mm 2 m/S 748 mmHg 56%
    08:00 +35°C° 0 mm 1 m/S 748 mmHg 55%
    09:00 +36°C° 0 mm 1 m/S 748 mmHg 55%
    10:00 +36°C° 0 mm 1 m/S 748 mmHg 52%
    11:00 +36°C° 0 mm 1 m/S 748 mmHg 48%
    12:00 +38°C° 0 mm 2 m/S 748 mmHg 44%
    13:00 +38°C° 0 mm 3 m/S 748 mmHg 46%
    14:00 +38°C° 0 mm 4 m/S 747 mmHg 48%
    15:00 +39°C° 0 mm 5 m/S 747 mmHg 49%
    16:00 +39°C° 0 mm 5 m/S 747 mmHg 53%
    17:00 +38°C° 0 mm 6 m/S 746 mmHg 56%
    18:00 +38°C° 0 mm 6 m/S 746 mmHg 60%
    19:00 +37°C° 0 mm 5 m/S 747 mmHg 62%
    20:00 +37°C° 0 mm 5 m/S 747 mmHg 63%
    21:00 +36°C° 0 mm 4 m/S 747 mmHg 65%
    22:00 +36°C° 0 mm 3 m/S 747 mmHg 66%
    23:00 +36°C° 0 mm 3 m/S 747 mmHg 66%

    22 Juli, Montag

    Zeit Temperatur Niederschläge Wind Luftdruck Luftfeuchtigkeit
    00:00 +36°C° 0 mm 2 m/S 746 mmHg 67%
    01:00 +36°C° 0 mm 2 m/S 746 mmHg 67%
    02:00 +36°C° 0 mm 2 m/S 746 mmHg 66%
    03:00 +36°C° 0 mm 2 m/S 746 mmHg 66%
    04:00 +35°C° 0 mm 2 m/S 746 mmHg 66%
    05:00 +35°C° 0 mm 2 m/S 747 mmHg 67%
    06:00 +35°C° 0 mm 2 m/S 747 mmHg 67%
    07:00 +36°C° 0 mm 3 m/S 747 mmHg 65%
    08:00 +36°C° 0 mm 3 m/S 748 mmHg 64%
    09:00 +36°C° 0 mm 3 m/S 748 mmHg 62%
    10:00 +37°C° 0 mm 3 m/S 747 mmHg 61%
    11:00 +37°C° 0 mm 3 m/S 747 mmHg 61%
    12:00 +37°C° 0 mm 4 m/S 747 mmHg 61%
    13:00 +37°C° 0 mm 4 m/S 746 mmHg 63%
    14:00 +37°C° 0 mm 5 m/S 746 mmHg 65%
    15:00 +38°C° 0 mm 6 m/S 745 mmHg 67%
    16:00 +38°C° 0 mm 6 m/S 745 mmHg 66%
    17:00 +38°C° 0 mm 6 m/S 745 mmHg 65%
    18:00 +38°C° 0 mm 6 m/S 745 mmHg 64%
    19:00 +38°C° 0 mm 6 m/S 745 mmHg 66%
    20:00 +36°C° 0 mm 7 m/S 746 mmHg 67%
    21:00 +36°C° 0 mm 7 m/S 746 mmHg 69%
    22:00 +36°C° 0 mm 6 m/S 746 mmHg 69%
    23:00 +36°C° 0 mm 4 m/S 745 mmHg 70%

    23 Juli, Dienstag

    Zeit Temperatur Niederschläge Wind Luftdruck Luftfeuchtigkeit
    00:00 +35°C° 0 mm 2 m/S 745 mmHg 71%
    01:00 +35°C° 0 mm 2 m/S 745 mmHg 70%
    02:00 +35°C° 0 mm 2 m/S 745 mmHg 70%
    03:00 +35°C° 0 mm 2 m/S 745 mmHg 69%
    04:00 +35°C° 0 mm 2 m/S 745 mmHg 69%
    05:00 +35°C° 0 mm 2 m/S 745 mmHg 69%
    06:00 +35°C° 0 mm 2 m/S 746 mmHg 68%
    07:00 +36°C° 0 mm 2 m/S 746 mmHg 68%
    08:00 +35°C° 0 mm 1 m/S 747 mmHg 67%
    09:00 +35°C° 0 mm 1 m/S 747 mmHg 66%
    10:00 +36°C° 0 mm 2 m/S 747 mmHg 64%
    11:00 +37°C° 0 mm 2 m/S 747 mmHg 61%
    12:00 +37°C° 0 mm 2 m/S 746 mmHg 58%
    13:00 +37°C° 0 mm 3 m/S 746 mmHg 61%
    14:00 +37°C° 0 mm 4 m/S 745 mmHg 65%
    15:00 +37°C° 0 mm 5 m/S 745 mmHg 68%
    16:00 +37°C° 0 mm 5 m/S 745 mmHg 68%
    17:00 +37°C° 0 mm 5 m/S 745 mmHg 69%
    18:00 +37°C° 0 mm 5 m/S 745 mmHg 69%
    19:00 +37°C° 0 mm 5 m/S 745 mmHg 67%
    20:00 +37°C° 0 mm 4 m/S 745 mmHg 66%
    21:00 +37°C° 0 mm 4 m/S 746 mmHg 65%
    22:00 +36°C° 0 mm 4 m/S 745 mmHg 67%
    23:00 +36°C° 0 mm 4 m/S 745 mmHg 70%

    24 Juli, Mittwoch

    Zeit Temperatur Niederschläge Wind Luftdruck Luftfeuchtigkeit
    00:00 +35°C° 0 mm 4 m/S 745 mmHg 72%
    01:00 +35°C° 0 mm 4 m/S 745 mmHg 73%
    02:00 +35°C° 0 mm 4 m/S 745 mmHg 73%
    03:00 +35°C° 0 mm 4 m/S 745 mmHg 73%
    04:00 +35°C° 0 mm 3 m/S 745 mmHg 73%
    05:00 +35°C° 0 mm 3 m/S 746 mmHg 73%
    06:00 +35°C° 0 mm 3 m/S 746 mmHg 73%
    07:00 +35°C° 0 mm 2 m/S 746 mmHg 71%
    08:00 +35°C° 0 mm 2 m/S 747 mmHg 69%
    09:00 +36°C° 0 mm 2 m/S 747 mmHg 68%
    10:00 +36°C° 0 mm 2 m/S 747 mmHg 65%
    11:00 +36°C° 0 mm 3 m/S 747 mmHg 62%
    12:00 +37°C° 0 mm 3 m/S 746 mmHg 60%
    13:00 +37°C° 0 mm 3 m/S 746 mmHg 63%
    14:00 +37°C° 0 mm 4 m/S 745 mmHg 66%
    15:00 +37°C° 0 mm 4 m/S 745 mmHg 70%
    16:00 +37°C° 0 mm 4 m/S 745 mmHg 69%
    17:00 +37°C° 0 mm 4 m/S 745 mmHg 69%
    18:00 +37°C° 0 mm 4 m/S 745 mmHg 68%
    19:00 +37°C° 0 mm 4 m/S 745 mmHg 67%
    20:00 +37°C° 0 mm 4 m/S 746 mmHg 65%
    21:00 +37°C° 0 mm 4 m/S 746 mmHg 64%
    22:00 +36°C° 0 mm 4 m/S 746 mmHg 70%
    23:00 +35°C° 0 mm 5 m/S 746 mmHg 75%
    Mehr zeigen